Regional Weather Roundup
Issued by NWS

Home | Current Version | Previous Version | Graphics & Text | Print | Product List | Glossary On
Versions: 1 2 3 4 5 6 7 8 9 10 11 12 13 14 15 16 17 18 19 20 21 22 23 24 25 26 27 28 29 30 31 32 33 34 35 36 37 38 39 40 41 42 43 44 45 46 47 48 49 50
000
ASUS43 KOAX 281702
RWRNE

WEATHER ROUNDUP FOR NEBRASKA
NATIONAL WEATHER SERVICE OMAHA NE
1200 PM CDT MON JUL 28 2014

NOTES: SATELLITE DATA IS BEING USED TO AUGMENT CLOUD COVER ABOVE
       12000 FEET.
       "FAIR" INDICATES FEW OR NO CLOUDS BELOW 12,000 FEET WITH NO
       SIGNIFICANT WEATHER AND/OR OBSTRUCTIONS TO VISIBILITY.

  * THESE STATIONS DO NOT REPORT WEATHER SUCH AS RAIN...SNOW OR FOG.

NEZ001>004-019>022-054>056-281800-
NEBRASKA PANHANDLE

CITY           SKY/WX    TMP DP  RH WIND       PRES   REMARKS
SCOTTSBLUFF    SUNNY     74  56  53 E9        30.34S
ALLIANCE       SUNNY     78  52  40 S13G21    30.35F
CHADRON        SUNNY     78  53  41 SE10      30.32S
KIMBALL        MOSUNNY   77  52  41 SE8       30.36R
SIDNEY         SUNNY     80  54  40 E10       30.35F
$$

NEZ057>060-069>072-079>082-281800-
SOUTHWEST NEBRASKA

CITY           SKY/WX    TMP DP  RH WIND       PRES   REMARKS
NORTH PLATTE   SUNNY     76  57  51 SE9       30.33F
IMPERIAL       SUNNY     79  56  45 SE18G25   30.33F
LEXINGTON      SUNNY     74  58  59 E5        30.34F
MCCOOK         SUNNY     78  58  49 SE10      30.33F
OGALLALA       SUNNY     77  56  49 SE10G16   30.33F
$$

NEZ005>010-023>029-035>040-094-281800-
NORTH CENTRAL NEBRASKA

CITY           SKY/WX    TMP DP  RH WIND       PRES   REMARKS
VALENTINE      SUNNY     73  54  51 MISG      30.34F
AINSWORTH      PTSUNNY   70  54  57 E5        30.35F
BROKEN BOW     SUNNY     73  57  57 VRB3      30.35S
O`NEILL        PTSUNNY   68  51  52 N6        30.33F
ORD            MOSUNNY   72  54  53 CALM      30.32F
THEDFORD       MOSUNNY   75  57  53 NE9       30.35F
$$

NEZ041-046>049-061>064-073>077-083>087-281800-
SOUTH CENTRAL NEBRASKA

CITY           SKY/WX    TMP DP  RH WIND       PRES   REMARKS
GRAND ISLAND   SUNNY     73  55  53 N9        30.34S
AURORA         MOSUNNY   72  57  59 N8        30.33F
HASTINGS       SUNNY     72  54  53 N8        30.34S
HEBRON         SUNNY     73  55  52 N8        30.31F
HOLDREGE       SUNNY     72  57  59 CALM      30.35S
KEARNEY *      SUNNY     72  55  56 E5        30.35S
YORK           PTSUNNY   68  57  68 N7        30.33S
$$

NEZ011>018-030>034-042>045-281800-
NORTHEAST NEBRASKA

CITY           SKY/WX    TMP DP  RH WIND       PRES   REMARKS
NORFOLK        MOSUNNY   72  51  47 N17       30.30S
ALBION         MOSUNNY   68  53  58 N7        30.34S
BLAIR          CLOUDY    68  55  63 N7        30.27S
COLUMBUS *     PTSUNNY   48 N/A N/A N8        30.31F
FREMONT        PTSUNNY   73  55  54 NW9       30.28F
TEKAMAH        CLOUDY    72  57  59 NW8       30.27
WAYNE          MOSUNNY   72  56  57 N10G16    30.29S
$$

NEZ050>053-065>068-078-088>093-281800-
SOUTHEAST NEBRASKA

CITY           SKY/WX    TMP DP  RH WIND       PRES   REMARKS
LINCOLN        MOSUNNY   75  54  47 N14       30.30S
OMAHA EPPLEY   PTSUNNY   71  56  58 N10       30.27S
BEATRICE       PTSUNNY   72  56  58 NW13G20   30.30S
FALLS CITY     PTSUNNY   71  58  63 NW12      30.26R
NEBRASKA CITY  PTSUNNY   70  57  62 NW9       30.27F
PLATTSMOUTH    CLOUDY    71  56  59 NW9       30.28S
$$

NEZ044-045-051>053-067-281800-
OMAHA AREA

CITY           SKY/WX    TMP DP  RH WIND       PRES   REMARKS
OMAHA EPPLEY   PTSUNNY   71  56  58 N10       30.27S
BLAIR          CLOUDY    68  55  63 N7        30.27S
FREMONT        PTSUNNY   73  55  54 NW9       30.28F
MILLARD        CLOUDY    70  56  59 NW7       30.27S
OFFUTT AFB     PTSUNNY   71  60  70 VRB5      30.26S
PLATTSMOUTH    CLOUDY    71  56  59 NW9       30.28S
WAHOO          PTSUNNY   73  55  53 N10       30.28F
$$



USA.gov is the U.S. government's official web portal to all federal, state and local government web resources and services.